Regional Weather Roundup
Issued by NWS

Home | Current Version | Previous Version | Graphics & Text | Print | Product List | Glossary On
Versions: 1 2 3 4 5 6 7 8 9 10 11 12 13 14 15 16 17 18 19 20 21 22 23 24 25 26 27 28 29 30 31 32 33 34 35 36 37 38 39 40 41 42 43 44 45 46 47 48 49 50
738
ASUS43 KMKX 240621
RWRWI

WISCONSIN REGIONAL WEATHER ROUNDUP
NATIONAL WEATHER SERVICE MILWAUKEE/SULLIVAN WI
1200 AM CST FRI FEB 24 2017

NOTE: "FAIR" INDICATES FEW OR NO CLOUDS BELOW 12,000 FEET WITH NO
SIGNIFICANT WEATHER AND/OR OBSTRUCTIONS TO VISIBILITY.

WIZ001-002-006>008-014>016-023>028-240700-
NORTHWEST WISCONSIN

CITY           SKY/WX    TMP DP  RH WIND       PRES   REMARKS
SUPERIOR ARPT  CLOUDY    25  16  68 N7        30.02S WCI  17
6HR MIN TEMP:  25; 6HR MAX TEMP:  29;

ASHLAND        CLOUDY    27  18  69 N9        29.98R WCI  18
6HR MIN TEMP:  26; 6HR MAX TEMP:  29;

HAYWARD        CLOUDY    27  18  69 N9        29.92F WCI  18
6HR MIN TEMP:  26; 6HR MAX TEMP:  29;

SIREN          CLOUDY    27  19  72 NE12      29.94F WCI  17
6HR MIN TEMP:  27; 6HR MAX TEMP:  30;

CUMBERLAND     CLOUDY    28  21  74 NE15      29.88F WCI  17
RICE LAKE      CLOUDY    29  23  78 N15       29.89F WCI  18
6HR MIN TEMP:  29; 6HR MAX TEMP:  33;

CHETEK         CLOUDY    30  23  75 N7        29.87F WCI  23
6HR MIN TEMP:  30; 6HR MAX TEMP:  34;

LADYSMITH      CLOUDY    30  24  78 NE15      29.88F WCI  19
6HR MIN TEMP:  30; 6HR MAX TEMP:  34;

EAU CLAIRE     LGT SNOW  31  26  82 NE14G20   29.86S VSB 3/4 WCI  21
6HR MIN TEMP:  31; 6HR MAX TEMP:  37; 6HR PCP: TRACE;

MENOMONIE      FLURRIES  32  24  73 N13G18    29.87S WCI  22
6HR MIN TEMP:  32; 6HR MAX TEMP:  37;

NEW RICHMOND   CLOUDY    29  23  76 NE17      29.89F WCI  17
6HR MIN TEMP:  29; 6HR MAX TEMP:  32;

OSCEOLA        CLOUDY    29  22  74 N8        29.94F WCI  21
6HR MIN TEMP:  29; 6HR MAX TEMP:  31;

$$

WIZ003>005-009-010-017-018-240700-
NORTH CENTRAL WISCONSIN

CITY           SKY/WX    TMP DP  RH WIND       PRES   REMARKS
MANITOWISH WTR CLOUDY    24  24 100 N3        29.90S
6HR MIN TEMP:  24; 6HR MAX TEMP:  28;

ARBOR VITAE    CLOUDY    28  25  89 N3          N/A
6HR MIN TEMP:  28; 6HR MAX TEMP:  32;

WOODRUFF       CLOUDY    28  25  89 N3          N/A
6HR MIN TEMP:  28; 6HR MAX TEMP:  32;

RHINELANDER    CLOUDY    29  21  72 NE7       29.89S WCI  22
6HR MIN TEMP:  29; 6HR MAX TEMP:  33;

EAGLE RIVER    CLOUDY    26  22  83 NE6       29.88F WCI  20
6HR MIN TEMP:  26; 6HR MAX TEMP:  30;

LAND O LAKES   CLOUDY    25  23  93 CALM      29.91S
6HR MIN TEMP:  25; 6HR MAX TEMP:  30;

PHILLIPS       CLOUDY    27  24  87 NE10G16   29.88F WCI  17
6HR MIN TEMP:  27; 6HR MAX TEMP:  31;

TOMAHAWK       CLOUDY    28  20  71 NE8       29.88F WCI  20
6HR MIN TEMP:  28; 6HR MAX TEMP:  32;

MEDFORD        LGT SNOW  28  25  88 NE10G20   29.82F WCI  19
6HR MIN TEMP:  28; 6HR MAX TEMP:  35;

MERRILL        NOT AVBL
$$

WIZ029-030-035-036-043>047-240700-
CENTRAL WISCONSIN

CITY           SKY/WX    TMP DP  RH WIND       PRES   REMARKS
WAUSAU         FLURRIES  33  26  75 NE12      29.81F WCI  24
6HR MIN TEMP:  33; 6HR MAX TEMP:  39; 6HR PCP: TRACE;

MOSINEE        LGT SNOW  32  30  93 E10       29.84F WCI  24
MARSHFIELD     LGT SNOW  31  29  92 NE9       29.81R VSB 1   WCI  23
6HR MIN TEMP:  31; 6HR MAX TEMP:  39; 6HR PCP: TRACE;

STEVENS POINT  LGT SNOW  31  26  81 NE10      29.82F WCI  22
6HR MIN TEMP:  31; 6HR MAX TEMP:  38;

WAUPACA        CLOUDY    36  26  66 NE10G21   29.83S WCI  28
6HR MIN TEMP:  36; 6HR MAX TEMP:  42;

WAUTOMA        LGT SNOW  30  28  93 NE15G22   29.78F VSB 3/4 WCI  19
6HR MIN TEMP:  32; 6HR MAX TEMP:  39;

WISC RAPIDS    LGT SNOW  34  28  79 E14G25    29.80F WCI  25
6HR MIN TEMP:  34; 6HR MAX TEMP:  42; 6HR PCP: TRACE;

CAMP DOUGLAS   LGT SNOW  32  32 100 NE6G16    29.74F FOG     WCI  26
                                      6HR PCP:  0.01;

$$

WIZ011>013-019>022-031-037>040-048>050-240700-
NORTHEAST WISCONSIN

CITY           SKY/WX    TMP DP  RH WIND       PRES   REMARKS
ANTIGO         CLOUDY    30  25  82 NE16      29.85F WCI  19
6HR MIN TEMP:  30; 6HR MAX TEMP:  35;

SHAWANO        CLOUDY    34  28  79 NE12      29.89R WCI  25
6HR MIN TEMP:  34; 6HR MAX TEMP:  39;

OCONTO         CLOUDY    32  27  80 NE7       29.88F WCI  26
6HR MIN TEMP:  32; 6HR MAX TEMP:  34;

STURGEON BAY   FLURRIES  33  24  69 NE10G18   29.89F WCI  25
6HR MIN TEMP:  33; 6HR MAX TEMP:  35; 6HR PCP: TRACE;

GREEN BAY      FLURRIES  34  30  85 NE17      29.84F WCI  23
6HR MIN TEMP:  34; 6HR MAX TEMP:  38; 6HR PCP: TRACE;

MANITOWOC      LGT SNOW  34  30  86 NE12G20   29.84F VSB 1   WCI  25
6HR MIN TEMP:  33; 6HR MAX TEMP:  36; 6HR PCP:  0.01;

APPLETON       FLURRIES  32  27  80 NE13G23   29.80F WCI  22
CLINTONVILLE   CLOUDY    34  27  75 E12       29.85F WCI  25
OSHKOSH        LGT SNOW  32  30  92 NE16      29.77F VSB 3/4 WCI  21
6HR MIN TEMP:  32; 6HR MAX TEMP:  37; 6HR PCP:  0.01;

$$

WIZ032>034-041-042-053>061-240700-
SOUTHWEST WISCONSIN

CITY           SKY/WX    TMP DP  RH WIND       PRES   REMARKS
LA CROSSE      LGT SNOW  35  32  88 N12       29.77F FOG     WCI  27
6HR MIN TEMP:  35; 6HR MAX TEMP:  44; 6HR PCP:  0.07;

SPARTA         LGT SNOW  34  31  89 NE9G23    29.78F WCI  27
6HR MIN TEMP:  34; 6HR MAX TEMP:  42; 6HR PCP:  0.01;

VIROQUA        CLOUDY    33  32  98 NE17      29.70R WCI  22
6HR MIN TEMP:  33; 6HR MAX TEMP:  41; 6HR PCP:  0.05;

BOSCOBEL       LGT RAIN  35  32  88 NE13G23   29.69R FOG     WCI  26
6HR MIN TEMP:  34; 6HR MAX TEMP:  45; 6HR PCP:  0.35;

PRAIRIE DU CHI MIX PCPN  33  32  96 NE12G24   29.68F WCI  25
6HR MIN TEMP:  33; 6HR MAX TEMP:  43; 6HR PCP:  0.40;

PLATTEVILLE    CLOUDY    34  34 100 NE25G33   29.63F WCI  21
6HR MIN TEMP:  34; 6HR MAX TEMP:  41; 6HR PCP:  0.10;

$$

WIZ056-057-062-063-064-067-068-240700-
SOUTH CENTRAL WISCONSIN

CITY           SKY/WX    TMP DP  RH WIND       PRES   REMARKS
REEDSBURG      LGT SNOW  32  32 100 NE16G22   29.71F WCI  21
6HR MIN TEMP:  32; 6HR MAX TEMP:  40; 6HR PCP:  0.13;

BARABOO/DELLS  LGT SNOW  32  31  96 NE17      29.74F WCI  20
6HR MIN TEMP:  32; 6HR MAX TEMP:  39; 6HR PCP:  0.10;

LONE ROCK      LGT RAIN  34  30  85 E25G32    29.67F WCI  21
6HR MIN TEMP:  34; 6HR MAX TEMP:  42; 6HR PCP:  0.31;

MINERAL POINT  LGT RAIN  34  34 100 NE23G37   29.63F WCI  22
MADISON        LGT RAIN  33  31  92 NE20G26   29.73F WCI  21
6HR MIN TEMP:  32; 6HR MAX TEMP:  38; 6HR PCP:  0.25;

MIDDLETON      CLOUDY    34  33  96 NE16G25   29.71F WCI  23
6HR MIN TEMP:  34; 6HR MAX TEMP:  39; 6HR PCP:  0.13;

WATERTOWN      CLOUDY    33  33 100 NE13G18   29.73F WCI  24
6HR MIN TEMP:  32; 6HR MAX TEMP:  35; 6HR PCP:  0.31;

MONROE         TSTM      32  32 100 NE20G30   29.64F WCI  20
JANESVILLE     CLOUDY    36  36 100 NE17G29   29.65F WCI  25
$$

WIZ051-052-058>065-066-070>072-240700-
SOUTHEAST WISCONSIN

CITY           SKY/WX    TMP DP  RH WIND       PRES   REMARKS
MILWAUKEE      LGT RAIN  35  32  88 NE21G29   29.75F FOG     WCI  24
6HR MIN TEMP:  35; 6HR MAX TEMP:  37; 6HR PCP:  0.31;

WAUKESHA       LGT RAIN  32  32 100 NE17G28   29.75F WCI  21
MILWAUKEE/TIMM DRIZZLE   32  32 100 NE15G22   29.77F WCI  22
RACINE         RAIN      36  33  89 NE22G31   29.76F WCI  25
6HR MIN TEMP:  36; 6HR MAX TEMP:  37; 6HR PCP:  0.28;

KENOSHA        CLOUDY    36  34  92 NE24G33   29.72F WCI  24
6HR MIN TEMP:  36; 6HR MAX TEMP:  37; 6HR PCP:  0.25;

FOND DU LAC    HVY SNOW  32  29  88 NE21G26   29.79F VSB 1/4 WCI  20
6HR MIN TEMP:  33; 6HR MAX TEMP:  37; 6HR PCP:  0.08;

SHEBOYGAN      HVY SNOW  32  30  92 NE30G38   29.79S VSB 1/4 WCI  18
6HR MIN TEMP:  33; 6HR MAX TEMP:  35; 6HR PCP:  0.05;

WEST BEND      LGT SNOW  32  32 100 NE18G28   29.76F WCI  20
JUNEAU         MIX PCPN  32  31  96 NE14G22   29.75R WCI  22
6HR MIN TEMP:  32; 6HR MAX TEMP:  36; 6HR PCP:  0.28;

$$

LSZ147-162-240700-
LAKE SUPERIOR

STATION/POSITION TIME  TEMP    WIND        PRES    WAVE
                       AIR SEA DIR/SP/G            HT/PER
                 (UTC) (F)     (DEG/KT/KT) (MB)    (FT/S)
DEVILS ISLAND    0600   29      30/ 17/ 19 1017.1R
PORT WING        0540   29      30/ 15/ 18 1016.3R
SAXON HARBOR     0540   32      20/ 18/ 19 1014.9R
$$

LMZ867-665-643>646-240700-
LAKE MICHIGAN

STATION/POSITION TIME  TEMP    WIND        PRES    WAVE
                       AIR SEA DIR/SP/G            HT/PER
                 (UTC) (F)     (DEG/KT/KT) (MB)    (FT/S)
CHAMBERS ISLAND  0540   33      40/ 12/ 16 1012.5F
NORTHPORT PIER   0540   33      50/ 10/ 12 1012.9F
SISTER BAY



USA.gov is the U.S. government's official web portal to all federal, state and local government web resources and services.